Location: Newark
(43.0000°N, 1.6781°W)
Time: 11:36:07
(UTC+00:00)

Transit 2A Rocket - All Passes

Search period start: 27 September 2022 00:00
Search period end: 07 October 2022 00:00
Orbit: 593 x 908 km, 66.7° (Epoch: 26 September)

Date Brightness Start Highest point End Pass type
(mag) Time Alt. Az. Time Alt. Az. Time Alt. Az.
27 Sep - 06:19:38 10° SSE 06:23:13 25° ESE 06:26:46 10° NE daylight
27 Sep - 08:01:39 10° WSW 08:05:34 33° NW 08:09:30 10° NNE daylight
27 Sep - 15:00:21 10° NNW 15:04:33 30° NE 15:09:03 10° ESE daylight
27 Sep - 16:42:38 10° NW 16:47:07 38° WSW 16:51:59 10° S daylight
28 Sep - 05:38:29 10° SE 05:40:36 13° ESE 05:42:43 10° ENE daylight
28 Sep - 07:18:18 10° SW 07:22:34 59° NW 07:26:51 10° NNE daylight
28 Sep - 14:17:57 10° N 14:21:24 19° NE 14:25:02 10° E daylight
28 Sep - 15:59:31 10° NW 16:04:19 68° WSW 16:09:33 10° SSE daylight
29 Sep - 06:35:22 10° SSW 06:39:41 73° ESE 06:43:59 10° NE daylight
29 Sep - 08:20:09 10° WNW 08:22:42 15° NW 08:25:17 10° N daylight
29 Sep - 13:35:59 10° NNE 13:38:07 13° NE 13:40:18 10° ENE daylight
29 Sep - 15:16:38 10° NNW 15:21:26 70° ENE 15:26:40 10° SE daylight
29 Sep - 17:00:35 10° WNW 17:03:31 16° WSW 17:06:35 10° SW daylight
30 Sep - 05:52:54 10° S 05:56:54 37° ESE 06:00:53 10° NE daylight
30 Sep - 07:35:58 10° WSW 07:39:30 24° NW 07:43:03 10° N daylight
30 Sep - 14:33:55 10° NNW 14:38:27 41° NE 14:43:21 10° ESE daylight
30 Sep - 16:16:42 10° NW 16:20:50 28° WSW 16:25:18 10° SSW daylight
01 Oct - 05:11:04 10° SSE 05:14:13 20° ESE 05:17:21 10° ENE visible
01 Oct - 06:52:19 10° SW 06:56:24 41° NW 07:00:32 10° NNE daylight
01 Oct - 13:51:23 10° N 13:55:23 26° NE 13:59:38 10° ESE daylight
01 Oct - 15:33:23 10° NW 15:38:05 48° WSW 15:43:11 10° S daylight
02 Oct - 04:31:16 10° ESE 04:31:38 10° ESE 04:32:00 10° E visible
02 Oct - 06:09:08 10° SW 06:13:26 76° WNW 06:17:47 10° NNE daylight
02 Oct - 07:55:14 10° WNW 07:56:46 12° NW 07:58:18 10° NNW daylight
02 Oct - 13:09:06 10° N 13:12:11 17° NE 13:15:23 10° E daylight
02 Oct - 14:50:23 10° NNW 14:55:15 85° WSW 15:00:34 10° SSE daylight
02 Oct - 16:35:56 10° W 16:37:09 11° WSW 16:38:23 10° WSW daylight
03 Oct - 05:26:23 10° SSW 05:30:36 56° ESE 05:34:51 10° NE visible
03 Oct - 07:10:27 10° W 07:13:28 18° NW 07:16:30 10° N daylight
03 Oct - 12:27:34 10° NNE 12:28:50 11° NE 12:30:09 10° NE daylight
03 Oct - 14:07:34 10° NNW 14:12:19 57° NE 14:17:30 10° SE daylight
03 Oct - 15:50:57 10° WNW 15:54:32 20° WSW 15:58:19 10° SSW daylight
04 Oct - 04:44:08 10° S 04:47:52 29° ESE 04:51:35 10° NE visible
04 Oct - 06:26:31 10° WSW 06:30:17 29° NW 06:34:08 10° NNE daylight
04 Oct - 13:24:55 10° NNW 13:29:18 34° NE 13:34:03 10° ESE daylight
04 Oct - 15:07:22 10° NW 15:11:50 34° WSW 15:16:38 10° S daylight
05 Oct - 04:02:40 10° SE 04:05:13 15° ESE 04:07:46 10° ENE visible
05 Oct - 05:43:03 10° SW 05:47:15 52° NW 05:51:31 10° NNE daylight
05 Oct - 12:42:27 10° N 12:46:11 22° NE 12:50:08 10° E daylight
05 Oct - 14:24:12 10° NW 14:29:02 61° WSW 14:34:18 10° SSE daylight
06 Oct - 05:00:02 10° SSW 05:04:20 84° ESE 05:08:41 10° NNE visible
06 Oct - 06:45:13 10° WNW 06:47:29 14° NW 06:49:46 10° N daylight
06 Oct - 12:00:19 10° N 12:02:56 14° NE 12:05:39 10° ENE daylight
06 Oct - 13:41:16 10° NNW 13:46:09 79° ENE 13:51:30 10° SE daylight
06 Oct - 15:25:34 10° WNW 15:28:11 14° WSW 15:30:54 10° SW daylight
